Altus, OK

12:28 AM CDT on October 17, 2017 (GMT -0500)
Altus Municipal

Weather History for KAXS - January, 2014

Change the Weather History Date:

Monday, January 20, 2014

  Actual Average (KLTS) Record (KLTS)
Temperature  
Mean Temperature 49 °F -  
Max Temperature 70 °F 50 °F 80 °F (1999)
Min Temperature 28 °F 27 °F 14 °F (2008)
Degree Days  
Heating Degree Days 16    
Moisture  
Dew Point 20 °F    
Average Humidity 36    
Maximum Humidity 70    
Minimum Humidity 14    
Precipitation  
Precipitation 0.00 in - - ()
Sea Level Pressure  
Sea Level Pressure 30.04 in    
Wind  
Wind Speed 11 mph (NNE)    
Max Wind Speed 31 mph    
Max Gust Speed 41 mph    
Visibility 10 miles    
Events      
Averages and records for this station are not official NWS values.
T = Trace of Precipitation, MM = Missing Value Source: NWS Daily Summary

Daily Weather History Graph

Daily Weather History Graph

Search for Another Location

Airport or City:

Trip Planner

Search our weather history database for the weather conditions in past years. The results will help you decide how hot, cold, wet, or windy it might be!

Date:

Astronomy

Jan. 20, 2014 Rise Set
Actual Time 7:42 AM CST 5:54 PM CST
Civil Twilight 7:15 AM CST 6:21 PM CST
Nautical Twilight 6:44 AM CST 6:52 PM CST
Astronomical Twilight 6:14 AM CST 7:22 PM CST
Moon 10:17 PM CST (1/20) 9:55 AM CST (1/20)
Length of Visible Light 11h 06m
Length of Day
10h 12m
Waning Gibbous, 82% of the Moon is Illuminated
Jan 20
Waning Gibbous
Jan 23
Last Quarter
Jan 30
New
Feb 6
First Quarter
Feb 14
Full

Hourly Weather History & Observations

Time (CST) Temp. Windchill Dew Point Humidity Pressure Visibility Wind Dir Wind Speed Gust Speed Precip Events Conditions
12:15 AM 46.8 °F - 18.3 °F 32% 29.93 in 10.0 mi South 6.9 mph - N/A   Clear
12:35 AM 43.5 °F 41.9 °F 18.3 °F 36% 29.92 in 10.0 mi SE 3.5 mph - N/A   Clear
12:55 AM 44.1 °F 40.1 °F 19.0 °F 37% 29.91 in 10.0 mi SE 6.9 mph - N/A   Clear
1:15 AM 42.4 °F 37.0 °F 19.2 °F 39% 29.89 in 10.0 mi SSE 9.2 mph - N/A   Clear
1:35 AM 39.4 °F 36.1 °F 19.6 °F 45% 29.88 in 10.0 mi ESE 4.6 mph - N/A   Clear
1:55 AM 41.0 °F 36.4 °F 19.9 °F 43% 29.87 in 10.0 mi SE 6.9 mph - N/A   Clear
2:15 AM 40.1 °F 35.3 °F 20.1 °F 45% 29.87 in 10.0 mi SE 6.9 mph - N/A   Clear
2:35 AM 38.1 °F 32.9 °F 20.1 °F 48% 29.87 in 10.0 mi ESE 6.9 mph - N/A   Clear
2:55 AM 37.0 °F 32.4 °F 20.3 °F 51% 29.87 in 10.0 mi East 5.8 mph - N/A   Clear
3:15 AM 37.0 °F 31.0 °F 20.5 °F 51% 29.87 in 10.0 mi East 8.1 mph - N/A   Clear
3:35 AM 36.1 °F 29.9 °F 20.7 °F 53% 29.87 in 10.0 mi East 8.1 mph - N/A   Clear
3:55 AM 36.7 °F 30.5 °F 20.7 °F 52% 29.86 in 10.0 mi ESE 8.1 mph - N/A   Clear
4:15 AM 36.5 °F 30.3 °F 20.7 °F 53% 29.86 in 10.0 mi East 8.1 mph - N/A   Clear
4:35 AM 35.2 °F 30.3 °F 20.7 °F 55% 29.86 in 10.0 mi East 5.8 mph - N/A   Clear
4:55 AM 35.1 °F 29.3 °F 20.7 °F 56% 29.85 in 10.0 mi East 6.9 mph - N/A   Clear
5:15 AM 34.2 °F 28.2 °F 20.8 °F 58% 29.85 in 10.0 mi East 6.9 mph - N/A   Clear
5:35 AM 34.7 °F 28.8 °F 21.0 °F 57% 29.85 in 10.0 mi East 6.9 mph - N/A   Clear
5:55 AM 34.7 °F 29.6 °F 21.0 °F 57% 29.85 in 10.0 mi East 5.8 mph - N/A   Clear
6:15 AM 35.6 °F 31.7 °F 21.0 °F 55% 29.86 in 10.0 mi East 4.6 mph - N/A   Clear
6:35 AM 32.2 °F 28.9 °F 20.3 °F 62% 29.87 in 10.0 mi North 3.5 mph - N/A   Clear
6:55 AM 28.2 °F 20.2 °F 19.4 °F 70% 29.88 in 10.0 mi North 8.1 mph - N/A   Clear
7:15 AM 29.8 °F 20.9 °F 21.2 °F 70% 29.88 in 10.0 mi North 10.4 mph - N/A   Clear
7:35 AM 29.8 °F 23.9 °F 20.8 °F 69% 29.90 in 10.0 mi North 5.8 mph - N/A   Clear
7:55 AM 29.7 °F 24.7 °F 20.3 °F 68% 29.90 in 10.0 mi NNW 4.6 mph - N/A   Clear
8:15 AM 30.9 °F 25.2 °F 21.2 °F 67% 29.91 in 10.0 mi NNW 5.8 mph - N/A   Clear
8:35 AM 32.0 °F 28.7 °F 21.7 °F 66% 29.91 in 10.0 mi NNW 3.5 mph - N/A   Clear
8:55 AM 37.4 °F 32.8 °F 21.9 °F 54% 29.92 in 10.0 mi NNW 5.8 mph - N/A   Clear
9:15 AM 41.4 °F 35.2 °F 22.1 °F 46% 29.92 in 10.0 mi North 10.4 mph - N/A   Clear
9:35 AM 47.5 °F - 22.3 °F 37% 29.93 in 10.0 mi North 12.7 mph - N/A   Clear
9:55 AM 52.0 °F - 22.3 °F 31% 29.94 in 10.0 mi NNW 12.7 mph - N/A   Clear
10:15 AM 55.4 °F - 22.3 °F 28% 29.96 in 10.0 mi NNW 15.0 mph - N/A   Clear
10:35 AM 57.9 °F - 22.5 °F 25% 29.97 in 10.0 mi North 13.8 mph - N/A   Clear
10:55 AM 60.6 °F - 22.1 °F 23% 29.97 in 10.0 mi North 18.4 mph - N/A   Clear
11:15 AM 63.5 °F - 22.1 °F 21% 29.97 in 10.0 mi North 18.4 mph - N/A   Clear
11:35 AM 65.8 °F - 21.6 °F 19% 29.98 in 10.0 mi North 19.6 mph 24.2 mph N/A   Clear
11:55 AM 67.1 °F - 20.5 °F 17% 29.98 in 10.0 mi North 20.7 mph - N/A   Clear
12:15 PM 68.0 °F - 19.0 °F 15% 29.98 in 10.0 mi North 18.4 mph - N/A   Clear
12:35 PM 69.8 °F - 18.9 °F 14% 29.97 in 10.0 mi North 13.8 mph 20.7 mph N/A   Clear
12:55 PM 70.9 °F - 19.0 °F 14% 29.97 in 10.0 mi North 21.9 mph 28.8 mph N/A   Clear
1:15 PM 69.6 °F - 18.3 °F 14% 29.97 in 10.0 mi North 21.9 mph 31.1 mph N/A   Clear
1:35 PM 69.6 °F - 18.1 °F 14% 29.97 in 10.0 mi North 24.2 mph 29.9 mph N/A   Clear
1:55 PM 70.2 °F - 18.9 °F 14% 29.97 in 10.0 mi North 21.9 mph 27.6 mph N/A   Clear
2:15 PM 70.9 °F - 18.7 °F 14% 29.97 in 10.0 mi North 25.3 mph 29.9 mph N/A   Clear
2:35 PM 70.7 °F - 19.0 °F 14% 29.98 in 10.0 mi North 28.8 mph 34.5 mph N/A   Clear
2:55 PM 68.0 °F - 18.5 °F 15% 30.00 in 10.0 mi North 31.1 mph 36.8 mph N/A   Clear
3:15 PM 66.7 °F - 20.5 °F 17% 30.02 in 10.0 mi North 29.9 mph 36.8 mph N/A   Clear
3:35 PM 65.3 °F - 20.5 °F 18% 30.04 in 10.0 mi North 31.1 mph 41.4 mph N/A   Clear
3:39 PM 64.4 °F - 21.2 °F 19% 30.04 in 10.0 mi North 29.9 mph 41.4 mph N/A   Clear
3:55 PM 64.4 °F - 22.1 °F 20% 30.06 in 10.0 mi North 24.2 mph 38.0 mph N/A   Clear
4:15 PM 63.0 °F - 22.1 °F 21% 30.09 in 10.0 mi North 25.3 mph 39.1 mph N/A   Clear
4:35 PM 62.6 °F - 21.0 °F 20% 30.10 in 10.0 mi North 27.6 mph 38.0 mph N/A   Clear
4:39 PM 62.6 °F - 21.2 °F 20% 30.10 in 10.0 mi North 28.8 mph 34.5 mph N/A   Clear
4:55 PM 62.1 °F - 19.0 °F 19% 30.11 in 10.0 mi North 27.6 mph 38.0 mph N/A   Clear
5:15 PM 61.0 °F - 20.3 °F 21% 30.13 in 10.0 mi NNE 23.0 mph 27.6 mph N/A   Clear
5:35 PM 59.9 °F - 19.6 °F 21% 30.15 in 10.0 mi NNE 19.6 mph 31.1 mph N/A   Clear
5:55 PM 57.9 °F - 19.9 °F 23% 30.17 in 10.0 mi North 13.8 mph - N/A   Clear
6:15 PM 57.0 °F - 18.5 °F 22% 30.18 in 10.0 mi North 17.3 mph - N/A   Clear
6:35 PM 55.6 °F - 18.9 °F 24% 30.21 in 10.0 mi North 13.8 mph - N/A   Clear
6:55 PM 54.5 °F - 19.0 °F 25% 30.22 in 10.0 mi North 15.0 mph 20.7 mph N/A   Clear
7:15 PM 54.3 °F - 19.0 °F 25% 30.24 in 10.0 mi North 18.4 mph - N/A   Clear
7:19 PM 55.4 °F - 19.4 °F 25% 30.24 in 10.0 mi North 18.4 mph 24.2 mph N/A   Clear
7:35 PM 52.7 °F - 19.4 °F 27% 30.26 in 10.0 mi North 15.0 mph - N/A   Clear
7:55 PM 50.5 °F - 19.8 °F 30% 30.27 in 10.0 mi North 11.5 mph - N/A   Clear
8:15 PM 48.6 °F - 19.4 °F 32% 30.28 in 10.0 mi North 11.5 mph - N/A   Clear
8:35 PM 47.5 °F - 19.4 °F 33% 30.29 in 10.0 mi North 11.5 mph - N/A   Clear
8:55 PM 47.8 °F - 19.4 °F 32% 30.30 in 10.0 mi North 10.4 mph - N/A   Clear
9:15 PM 44.2 °F 38.4 °F 19.2 °F 37% 30.31 in 10.0 mi North 11.5 mph - N/A   Clear
9:35 PM 43.5 °F 39.4 °F 19.4 °F 38% 30.32 in 10.0 mi NNW 6.9 mph - N/A   Clear
9:55 PM 39.7 °F - 18.3 °F 42% 30.33 in 10.0 mi Calm Calm - N/A   Clear
10:15 PM 38.8 °F 33.8 °F 17.8 °F 43% 30.33 in 10.0 mi North 6.9 mph - N/A   Clear
10:35 PM 40.8 °F 36.2 °F 18.1 °F 40% 30.34 in 10.0 mi NNW 6.9 mph - N/A   Clear
10:55 PM 35.8 °F 28.8 °F 16.7 °F 46% 30.35 in 10.0 mi NW 9.2 mph - N/A   Clear
11:15 PM 36.5 °F 31.8 °F 17.6 °F 46% 30.36 in 10.0 mi NW 5.8 mph - N/A   Clear
11:35 PM 35.6 °F 32.8 °F 18.1 °F 49% 30.37 in 10.0 mi NW 3.5 mph - N/A   Scattered Clouds
11:55 PM 38.8 °F 35.4 °F 17.2 °F 42% 30.38 in 10.0 mi NNW 4.6 mph - N/A   Mostly Cloudy